Weather History for South Pass, WY

Change the Weather History Date:

Wednesday, November 21, 2012

  Actual Average (KLND) Record (KLND)
Temperature  
Mean Temperature 36 °F 28 °F  
Max Temperature 41 °F 39 °F 63 °F (2012)
Min Temperature 32 °F 17 °F -14 °F (1977)
Degree Days  
Heating Degree Days 28 37  
Month to date heating degree days 657  
Since 1 July heating degree days 1518  
Moisture  
Dew Point 26 °F    
Average Humidity 66    
Maximum Humidity 93    
Minimum Humidity 52    
Precipitation  
Precipitation 0.00 in 0.02 in 0.78 in (1983)
Month to date precipitation 0.63  
Year to date precipitation 11.85  
Snow  
Snow - 0.40 in - ()
Month to date snowfall 9.1  
Since 1 July snowfall 21.6  
Since 1 September snowfall 21.6  
Snow Depth -    
Sea Level Pressure  
Sea Level Pressure 29.93 in    
Wind  
Wind Speed 21 mph ()    
Max Wind Speed 31 mph    
Max Gust Speed 41 mph    
Visibility 9.7 miles    
Events Snow    
T = Trace of Precipitation, MM = Missing Value Source: Averaged Metar Reports

Daily Weather History Graph

Daily Weather History Graph

Search for Another Location

Airport:

Trip Planner

Search our weather history database for the weather conditions in past years. The results will help you decide how hot, cold, wet, or windy it might be!

Date:

Astronomy

Nov. 21, 2012 Rise Set
Actual Time 7:14 AM MST 4:47 PM MST
Civil Twilight 6:43 AM MST 5:18 PM MST
Nautical Twilight 6:09 AM MST 5:52 PM MST
Astronomical Twilight 5:35 AM MST 6:26 PM MST
Moon 1:12 PM MST (11/21) 12:28 AM MST (11/21)
Length of Visible Light 10h 34m
Length of Day
9h 33m
Waxing Gibbous, 62% of the Moon is Illuminated
Nov 21
Waxing Gibbous
Nov 28
Full
Dec 6
Last Quarter
Dec 13
New
Dec 19
First Quarter

Hourly Weather History & Observations

Time (MST) Temp. Windchill Dew Point Humidity Pressure Visibility Wind Dir Wind Speed Gust Speed Precip Events Conditions
12:15 AM 37.4 °F 26.9 °F 26.6 °F 65% 30.02 in 10.0 mi WSW 20.7 mph 27.6 mph N/A   Clear
12:35 AM 37.4 °F 27.2 °F 26.6 °F 65% 30.02 in 10.0 mi WSW 19.6 mph 28.8 mph N/A   Clear
12:55 AM 37.4 °F 26.6 °F 26.6 °F 65% 30.00 in 10.0 mi WSW 21.9 mph 33.4 mph N/A   Clear
1:15 AM 37.4 °F 26.4 °F 26.6 °F 65% 30.00 in 10.0 mi WSW 23.0 mph 32.2 mph N/A   Clear
1:35 AM 37.4 °F 26.1 °F 26.6 °F 65% 30.00 in 10.0 mi WSW 24.2 mph 31.1 mph N/A   Clear
1:55 AM 37.4 °F 26.4 °F 26.6 °F 65% 29.99 in 10.0 mi WSW 23.0 mph 38.0 mph N/A   Clear
2:15 AM 37.4 °F 26.6 °F 26.6 °F 65% 29.98 in 10.0 mi WSW 21.9 mph 31.1 mph N/A   Clear
2:35 AM 37.4 °F 26.4 °F 26.6 °F 65% 29.98 in 10.0 mi WSW 23.0 mph 31.1 mph N/A   Clear
2:55 AM 37.4 °F 25.9 °F 24.8 °F 60% 29.98 in 10.0 mi WSW 25.3 mph 32.2 mph N/A   Clear
3:15 AM 37.4 °F 26.1 °F 24.8 °F 60% 29.97 in 10.0 mi WSW 24.2 mph 33.4 mph N/A   Clear
3:35 AM 37.4 °F 25.9 °F 24.8 °F 60% 29.96 in 10.0 mi WSW 25.3 mph 34.5 mph N/A   Clear
3:55 AM 37.4 °F 25.6 °F 24.8 °F 60% 29.96 in 10.0 mi WSW 26.5 mph 35.7 mph N/A   Clear
4:15 AM 37.4 °F 25.6 °F 23.0 °F 56% 29.95 in 10.0 mi WSW 26.5 mph 36.8 mph N/A   Clear
4:35 AM 37.4 °F 25.6 °F 23.0 °F 56% 29.94 in 10.0 mi WSW 26.5 mph 38.0 mph N/A   Clear
5:15 AM 37.4 °F 25.2 °F 23.0 °F 56% 29.94 in 10.0 mi WSW 28.8 mph 40.3 mph N/A   Clear
5:35 AM 37.4 °F 25.2 °F 23.0 °F 56% 29.94 in 10.0 mi WSW 28.8 mph 35.7 mph N/A   Clear
5:55 AM 37.4 °F 25.2 °F 21.2 °F 52% 29.94 in 10.0 mi WSW 28.8 mph 38.0 mph N/A   Clear
6:15 AM 37.4 °F 24.8 °F 21.2 °F 52% 29.94 in 10.0 mi WSW 31.1 mph 41.4 mph N/A   Clear
6:55 AM 37.4 °F 25.2 °F 23.0 °F 56% 29.94 in 10.0 mi WSW 28.8 mph 36.8 mph N/A   Clear
7:15 AM 37.4 °F 26.1 °F 23.0 °F 56% 29.94 in 10.0 mi WSW 24.2 mph 38.0 mph N/A   Clear
7:35 AM 35.6 °F 23.4 °F 23.0 °F 60% 29.95 in 10.0 mi WSW 25.3 mph 34.5 mph N/A   Clear
7:55 AM 35.6 °F 24.0 °F 23.0 °F 60% 29.96 in 10.0 mi WSW 23.0 mph 32.2 mph N/A   Clear
8:15 AM 35.6 °F 23.4 °F 23.0 °F 60% 29.96 in 10.0 mi WSW 25.3 mph 29.9 mph N/A   Clear
8:35 AM 35.6 °F 23.4 °F 23.0 °F 60% 29.95 in 10.0 mi WSW 25.3 mph 29.9 mph N/A   Clear
9:15 AM 37.4 °F 25.4 °F 23.0 °F 56% 29.94 in 10.0 mi WSW 27.6 mph 35.7 mph N/A   Clear
9:35 AM 37.4 °F 25.9 °F 23.0 °F 56% 29.94 in 10.0 mi WSW 25.3 mph 35.7 mph N/A   Clear
9:55 AM 37.4 °F 25.2 °F 23.0 °F 56% 29.94 in 10.0 mi WSW 28.8 mph 39.1 mph N/A   Clear
10:15 AM 37.4 °F 25.4 °F 23.0 °F 56% 29.94 in 10.0 mi WSW 27.6 mph 34.5 mph N/A   Clear
10:55 AM 37.4 °F 25.9 °F 23.0 °F 56% 29.94 in 10.0 mi WSW 25.3 mph 36.8 mph N/A   Clear
11:15 AM 37.4 °F 26.1 °F 23.0 °F 56% 29.93 in 10.0 mi WSW 24.2 mph 36.8 mph N/A   Clear
11:35 AM 39.2 °F 28.0 °F 23.0 °F 52% 29.93 in 10.0 mi WSW 26.5 mph 36.8 mph N/A   Clear
12:15 PM 39.2 °F 28.5 °F 23.0 °F 52% 29.92 in 10.0 mi WSW 24.2 mph 33.4 mph N/A   Clear
12:35 PM 39.2 °F 28.5 °F 23.0 °F 52% 29.91 in 10.0 mi WSW 24.2 mph 31.1 mph N/A   Clear
12:55 PM 39.2 °F 29.8 °F 24.8 °F 56% 29.91 in 10.0 mi WSW 18.4 mph 27.6 mph N/A   Clear
1:15 PM 39.2 °F 29.8 °F 26.6 °F 61% 29.92 in 10.0 mi SW 18.4 mph 27.6 mph N/A   Clear
1:35 PM 37.4 °F 28.2 °F 28.4 °F 70% 29.92 in 10.0 mi SW 16.1 mph 21.9 mph N/A   Scattered Clouds
1:55 PM 37.4 °F 28.2 °F 28.4 °F 70% 29.92 in 10.0 mi WSW 16.1 mph - N/A   Scattered Clouds
2:15 PM 39.2 °F 31.2 °F 30.2 °F 70% 29.91 in 10.0 mi SW 13.8 mph 19.6 mph N/A   Clear
2:35 PM 41.0 °F 32.2 °F 28.4 °F 61% 29.89 in 10.0 mi WSW 18.4 mph 24.2 mph N/A   Clear
3:15 PM 39.2 °F 28.7 °F 28.4 °F 65% 29.88 in 10.0 mi WSW 23.0 mph 28.8 mph N/A   Scattered Clouds
3:35 PM 39.2 °F 30.5 °F 30.2 °F 70% 29.88 in 10.0 mi SW 16.1 mph 25.3 mph N/A   Clear
3:55 PM 37.4 °F 27.8 °F 28.4 °F 70% 29.89 in 10.0 mi SW 17.3 mph 24.2 mph N/A   Mostly Cloudy
4:15 PM 37.4 °F 27.8 °F 28.4 °F 70% 29.89 in 10.0 mi SW 17.3 mph - N/A   Overcast
4:35 PM 37.4 °F 27.2 °F 28.4 °F 70% 29.89 in 10.0 mi WSW 19.6 mph 25.3 mph N/A   Mostly Cloudy
5:15 PM 37.4 °F 27.8 °F 28.4 °F 70% 29.90 in 10.0 mi WSW 17.3 mph 25.3 mph N/A   Overcast
5:35 PM 37.4 °F 26.6 °F 26.6 °F 65% 29.91 in 10.0 mi WSW 21.9 mph 28.8 mph N/A   Mostly Cloudy
5:55 PM 37.4 °F 27.5 °F 26.6 °F 65% 29.91 in 10.0 mi WSW 18.4 mph 24.2 mph N/A   Mostly Cloudy
6:15 PM 35.6 °F 24.8 °F 26.6 °F 70% 29.91 in 10.0 mi WSW 19.6 mph - N/A   Scattered Clouds
6:35 PM 35.6 °F 25.2 °F 28.4 °F 75% 29.92 in 10.0 mi WSW 18.4 mph 21.9 mph N/A   Scattered Clouds
6:55 PM 35.6 °F 26.6 °F 28.4 °F 75% 29.92 in 10.0 mi West 13.8 mph 19.6 mph N/A   Mostly Cloudy
7:15 PM 35.6 °F 27.1 °F 28.4 °F 75% 29.94 in 10.0 mi WSW 12.7 mph 17.3 mph N/A   Overcast
7:35 PM 35.6 °F 27.5 °F 28.4 °F 75% 29.94 in 10.0 mi WSW 11.5 mph 21.9 mph N/A   Overcast
7:55 PM 35.6 °F 27.1 °F 28.4 °F 75% 29.92 in 10.0 mi WSW 12.7 mph 18.4 mph N/A   Overcast
8:15 PM 35.6 °F 27.1 °F 28.4 °F 75% 29.93 in 10.0 mi WSW 12.7 mph - N/A   Overcast
8:35 PM 35.6 °F 25.5 °F 28.4 °F 75% 29.92 in 10.0 mi WSW 17.3 mph 27.6 mph N/A   Mostly Cloudy
8:55 PM 33.8 °F 21.6 °F 28.4 °F 81% 29.92 in 10.0 mi WSW 23.0 mph 26.5 mph N/A   Scattered Clouds
9:15 PM 33.8 °F 21.3 °F 28.4 °F 81% 29.91 in 10.0 mi WSW 24.2 mph 29.9 mph N/A   Mostly Cloudy
9:55 PM 33.8 °F 20.8 °F 28.4 °F 81% 29.89 in 10.0 mi WSW 26.5 mph 38.0 mph N/A   Overcast
10:15 PM 33.8 °F 21.0 °F 30.2 °F 87% 29.90 in 5.0 mi WSW 25.3 mph 34.5 mph N/A Snow Light Snow
10:35 PM 33.8 °F 21.0 °F 30.2 °F 87% 29.91 in 7.0 mi WSW 25.3 mph 31.1 mph N/A Snow Light Snow
10:55 PM 32.0 °F 18.9 °F 30.2 °F 93% 29.89 in 1.2 mi WSW 24.2 mph 32.2 mph N/A Snow Light Snow
11:15 PM 32.0 °F 18.4 °F 30.2 °F 93% 29.87 in 7.0 mi WSW 26.5 mph 33.4 mph N/A Snow Light Snow
11:35 PM 32.0 °F 17.9 °F 30.2 °F 93% 29.85 in 10.0 mi WSW 28.8 mph 38.0 mph N/A   Overcast
11:55 PM 32.0 °F 17.4 °F 30.2 °F 93% 29.84 in 10.0 mi WSW 31.1 mph 40.3 mph N/A   Mostly Cloudy